SCP
0 0 0 0 0 0 0 0 0 0 0 0 0 0 0 0 0 0 0 0 0 0 0 0 0 0 0 0 0 0 0 0 0 0 0 0 0 0
0 0 0 0 0 0 0 0 0 0 0 0 0 0 0 0 0 0 0 0 0 0 0 0 0 0 0 0 0 0 0 0 0 0 0 0 0 0
0 0 0 0 0 0 0 0 0 0 0 0 0 0 0 0 0 0 0 0 0 0 0 0 0 0 0 0 0 0 0 0 0 0 0 0 0 0
0 0 0 0 0 0 0 0 0 0 0 0 0 0 0 0 0 0 0 0 0 0 0 0 0 0 0 0 0 0 0 0 0 0 0 0 0 0
0 0 0 0 0 0 0 0 0 0 0 0 0 0 0 0 0 0 0 0 0 0 0 0 0 0 0 0 0 0 0 0 0 0 0 0 0 0
0 0 0 0 0 0 0 0 0 0 0 0 0 0 0 0 0 0 0 0 0 0 0 0 0 0 0 0 0 0 0 0 0 0 0 0 0 0
0 0 0 0 0 0 0 0 0 0 0 0 0 0 0 0 0 0 0 0 0 0 0 0 0 0 0 0 0 0 0 0 0 0 0 0 0 0
0 0 0 0 0 0 0 0 0 0 0 0 0 0 0 0 0 0 0 0 0 0 0 0 0 0 0 0 0 0 0 0 0 0 0 0 0 0
0 0 0 0 0 0 0 0 0 0 0 0 0 0 0 0 0 0 0 0 0 0 0 0 0 0 0 0 0 0 0 0 0 0 0 0 0 0
0 0 0 0 0 0 0 0 0 0 0 0 0 0 0 0 0 0 0 0 0 0 0 0 0 0 0 0 0 0 0 0 0 0 0 0 0 0
0 0 0 0 0 0 0 0 0 0 0 0 0 0 0 0 0 0 0 0 0 0 0 0 0 0 0 0 0 0 0 0 0 0 0 0 0 0
0 0 0 0 0 0 0 0 0 0 0 0 0 0 0 0 0 0 0 0 0 0 0 0 0 0 0 0 0 0 0 0 0 0 0 0 0 0
0 0 0 0 0 0 0 0 0 0 0 0 0 0 0 0 0 0 0 0 0 0 0 0 0 0 0 0 0 0 0 0 0 0 0 0 0 0
0 0 0 0 0 0 0 0 0 0 0 0 0 0 0 0 0 0 0 0 0 0 0 0 0 0 0 0 0 0 0 0 0 0 0 0 0 0
0 0 0 0 0 0 0 0 0 0 0 0 0 0 0 0 0 0 0 0 0 0 0 0 0 0 0 0 0 0 0 0 0 0 0 0 0 0
0 0 0 0 0 0 0 0 0 0 0 0 0 0 0 0 0 0 0 0 0 0 0 0 0 0 0 0 0 0 0 0 0 0 0 0 0 0
0 0 0 0 0 0 0 0 0 0 0 0 0 0 0 0 0 0 0 0 0 0 0 0 0 0 0 0 0 0 0 0 0 0 0 0 0 0
0 0 0 0 0 0 0 0 0 0 0 0 0 0 0 0 0 0 0 0 0 0 0 0 0 0 0 0 0 0 0 0 0 0 0 0 0 0
0 0 0 0 0 0 0 0 0 0 0 0 0 0 0 0 0 0 0 0 0 0 0 0 0 0 0 0 0 0 0 0 0 0 0 0 0 0
0 0 0 0 0 0 0 0 0 0 0 0 0 0 0 0 0 0 0 0 0 0 0 0 0 0 0 0 0 0 0 0 0 0 0 0 0 0
0 0 0 0 0 0 0 0 0 0 0 0 0 0 0 0 0 0 0 0 0 0 0 0 0 0 0 0 0 0 0 0 0 0 0 0 0 0
0 0 0 0 0 0 0 0 0 0 0 0 0 0 0 0 0 0 0 0 0 0 0 0 0 0 0 0 0 0 0 0 0 0 0 0 0 0
0 0 0 0 0 0 0 0 0 0 0 0 0 0 0 0 0 0 0 0 0 0 0 0 0 0 0 0 0 0 0 0 0 0 0 0 0 0
Wind_Speed
4 5 4 3 3 3 3 3 3 4 4 4 3 3 2 3 3 4 4 4 5 5 5 5 5 5 5 5 5 5 5 5 6 6 6 7 7 7
4 5 4 3 3 3 3 4 4 4 4 3 3 2 3 3 4 5 4 4 6 6 6 5 5 6 6 6 6 6 6 6 7 7 7 8 8 8
5 6 5 4 4 4 4 4 4 4 4 3 2 2 4 4 3 4 4 5 4 6 6 7 7 6 6 7 6 6 6 6 7 7 8 8 8 8
7 6 6 5 6 5 4 5 5 5 4 4 3 3 4 5 4 4 4 4 4 5 7 7 7 7 7 7 6 6 6 7 7 7 8 8 9 9
7 7 7 7 7 5 6 5 5 4 4 4 4 3 3 3 4 4 4 4 4 4 6 7 7 8 7 7 7 6 7 7 8 8 8 9 9 9
7 7 7 8 8 7 6 6 5 5 5 4 4 3 3 3 4 4 4 4 4 3 5 5 6 7 7 7 7 7 7 7 8 8 8 8 9 9
6 7 7 7 8 7 6 6 6 5 5 5 4 4 4 4 5 4 5 3 4 3 3 4 4 4 5 6 7 7 7 7 8 8 8 8 8 8
6 6 6 8 9 10 10 10 9 8 7 6 6 6 6 6 5 4 4 3 4 3 4 4 3 4 4 4 6 7 7 7 7 8 8 8 8 8
6 6 5 6 8 7 8 9 9 10 10 7 7 7 7 6 5 6 5 5 4 2 3 4 3 4 3 3 6 7 7 7 7 7 7 7 7 7
6 6 6 6 6 6 6 6 6 6 7 6 6 6 6 6 6 5 5 4 3 2 2 3 3 3 2 3 5 6 6 6 7 7 6 6 5 6
5 6 6 6 8 8 6 5 4 4 4 5 5 5 6 6 5 3 4 4 3 2 2 3 2 3 3 3 2 4 4 5 5 5 5 5 5 6
4 5 7 7 9 9 7 6 6 5 4 3 4 4 5 5 6 5 5 4 3 2 2 2 2 1 2 2 1 2 2 3 4 4 4 4 5 4
3 4 4 8 9 9 7 6 6 5 4 4 3 3 3 3 3 3 3 4 4 3 2 2 2 2 2 2 2 2 2 2 2 2 3 4 5 5
3 3 3 6 7 7 6 5 6 5 3 3 3 3 3 3 2 2 2 2 1 2 2 3 2 3 2 2 2 2 2 2 2 2 2 3 4 5
2 3 3 4 4 4 5 5 4 3 3 3 3 3 2 2 2 2 1 1 0 1 1 2 3 3 3 3 3 2 2 2 2 2 2 3 3 3
2 2 3 3 3 3 3 3 2 2 2 2 2 1 1 2 2 2 2 2 1 1 0 1 2 3 3 3 3 3 3 2 2 2 3 3 3 3
2 2 1 2 2 2 1 1 1 2 2 1 2 2 2 2 2 2 2 2 2 2 1 0 0 0 2 2 3 3 3 3 2 2 2 3 3 4
4 3 2 2 2 2 2 2 2 2 2 1 2 2 2 2 2 2 2 2 2 2 1 1 1 0 0 1 3 3 3 3 2 2 3 3 4 4
3 3 2 2 2 2 1 1 1 1 1 2 2 2 2 2 2 2 2 2 2 1 1 1 1 2 2 2 1 2 3 2 3 3 3 4 5 5
2 2 2 2 1 1 1 1 1 1 1 1 1 1 1 2 2 2 2 2 2 2 1 1 1 2 2 2 2 2 4 4 3 3 3 4 4 6
2 1 1 1 1 1 1 1 1 1 1 1 1 1 1 2 2 2 2 3 3 2 2 2 1 1 1 1 2 2 2 4 4 4 4 4 4 4
2 1 1 1 1 1 1 1 1 1 1 1 1 1 1 1 2 2 2 2 2 2 2 1 1 1 2 2 3 3 3 3 4 6 7 6 4 4
1 1 1 1 1 1 1 1 1 1 1 1 1 1 1 1 1 2 2 2 2 2 2 2 1 1 2 2 3 3 4 4 3 3 4 5 8 10
Wind_Direction
206 209 213 211 209 205 200 208 213 228 233 217 213 207 223 237 225 237 239 236 246 251 256 265 268 272 276 277 281 288 292 295 297 297 302 299 291 294
206 208 213 213 209 205 209 217 230 236 241 222 225 226 231 243 235 241 239 241 245 248 249 256 263 263 265 267 267 274 281 285 290 290 292 295 288 292
209 210 214 212 216 208 209 214 222 226 238 251 242 233 232 239 238 244 240 240 236 239 247 252 256 259 261 260 260 266 274 278 281 283 287 290 291 290
210 210 213 212 221 214 209 216 219 219 226 237 240 231 237 236 240 244 244 243 243 237 245 250 253 257 257 254 252 257 267 273 275 276 280 284 286 289
213 212 213 211 217 217 215 218 218 217 225 230 238 242 242 230 238 241 244 244 243 239 243 246 249 254 255 254 251 254 263 266 269 270 274 280 284 286
218 218 217 214 216 216 216 217 215 216 218 221 230 234 237 230 231 233 240 237 238 238 242 246 249 249 251 252 252 256 257 263 265 267 270 273 279 284
221 220 220 219 220 220 220 214 210 214 214 216 222 228 227 218 225 228 240 245 243 237 244 241 240 242 241 242 243 252 259 261 263 267 268 270 276 282
222 221 219 216 217 224 229 225 216 213 215 218 223 225 230 229 228 224 228 231 243 221 243 246 240 245 245 242 246 252 257 260 263 266 268 270 273 278
221 220 219 219 217 220 225 228 225 225 224 224 227 230 231 226 220 221 226 234 246 238 241 250 244 250 254 253 252 250 254 253 259 263 267 270 274 278
219 220 220 217 214 213 216 221 224 227 230 231 231 235 238 229 222 225 231 243 266 244 234 256 260 265 273 260 251 251 255 258 263 265 268 274 280 286
216 219 221 216 209 207 205 208 219 230 231 234 239 238 235 230 221 210 210 217 239 236 227 249 261 283 278 265 253 257 265 267 268 271 274 281 292 296
219 220 223 222 210 204 201 200 212 219 210 213 222 229 232 225 219 219 215 219 233 230 201 227 242 265 274 271 278 284 273 277 279 280 278 287 296 298
220 224 223 221 216 211 211 209 210 207 205 207 213 217 220 220 216 218 220 224 228 233 198 214 236 239 247 271 291 290 288 290 288 280 281 290 297 299
220 231 227 217 212 213 214 207 203 200 190 197 205 209 211 212 205 204 205 216 255 259 223 219 232 228 232 254 268 275 280 286 288 286 286 290 292 294
222 223 213 198 200 204 202 202 200 191 189 199 210 213 208 194 173 161 156 142 112 300 252 237 230 232 232 241 256 266 285 287 280 281 288 291 289 288
212 206 204 191 188 185 185 200 208 201 198 208 210 194 174 176 183 179 176 169 176 222 264 245 237 226 231 241 243 254 261 264 265 277 289 286 282 278
175 172 172 170 179 182 180 185 191 188 193 190 189 183 177 178 183 183 189 186 198 205 185 114 16 289 267 254 240 245 254 260 262 278 283 282 279 276
167 170 177 185 190 194 196 192 189 194 189 183 186 184 182 186 184 179 185 187 190 198 192 179 161 152 202 263 238 248 258 267 273 272 265 273 279 279
163 168 172 176 180 182 186 185 190 198 187 182 186 189 185 187 188 185 184 183 184 195 201 205 209 206 228 262 257 238 266 278 276 272 265 268 276 285
144 153 159 160 163 171 173 174 170 167 172 181 186 187 189 190 190 191 192 187 188 195 202 212 224 232 243 266 282 287 266 265 268 276 284 286 283 286
137 137 144 148 151 156 161 162 166 173 178 182 195 198 195 194 194 194 192 189 198 204 212 224 236 261 280 252 259 270 280 270 277 277 283 285 285 284
138 136 134 131 146 158 162 156 160 174 183 192 205 216 219 209 203 203 204 206 210 212 222 226 195 215 219 224 248 274 288 298 287 282 276 266 271 273
147 145 150 157 168 166 170 174 181 195 204 214 221 222 216 219 226 218 211 211 213 208 206 209 208 217 233 237 251 265 278 288 293 294 286 281 279 279